Clarinda
Sunday 3:15 PM
Temperature73° (73°/57°)
Dew Point59°
Relative Humidity61
%
Visibility10
mi
Pressure1023.4
mb
Wind DirectionSSE
160°
Wind Speed14
mph
(G22)
Precipitation Today0.01

Last 30 Observations

Time PresWx Temp DP Feels RH% Vsby Pressure Ceiling Direction Speed 1h Precip
2:55 PM 73° 59° 61
%
10
mi
1023.4
mb
SSE
160°
15
mph
(G23)
0.00"
2:35 PM 73° 59° 61
%
10
mi
1023.7
mb
SSE
150°
13
mph
(G18)
0.00"
2:15 PM 72° 59° 65
%
10
mi
1024.1
mb
SSE
160°
11
mph
0.00"
1:55 PM 72° 57° 60
%
10
mi
1024.4
mb
SSE
160°
10
mph
(G18)
0.00"
1:35 PM 72° 57° 60
%
10
mi
1024.7
mb
SSE
160°
11
mph
0.00"
1:15 PM 70° 55° 60
%
10
mi
1024.7
mb
SSE
160°
15
mph
0.00"
12:55 PM 68° 57° 68
%
10
mi
1025.1
mb
8,000
ft
S
170°
9
mph
(G15)
0.00"
12:35 PM 68° 55° 64
%
10
mi
1025.4
mb
8,000
ft
S
170°
13
mph
0.00"
12:15 PM 66° 59° 78
%
10
mi
1025.7
mb
8,000
ft
SSE
160°
9
mph
0.00"
11:55 AM 64° 61° 88
%
10
mi
1025.7
mb
8,000
ft
S
190°
7
mph
Trace
11:35 AM 63° 59° 88
%
10
mi
1026.1
mb
8,000
ft
SSE
160°
5
mph
0.00"
11:15 AM 63° 59° 88
%
10
mi
1026.1
mb
7,500
ft
S
170°
7
mph
0.00"
10:55 AM 61° 57° 88
%
10
mi
1025.7
mb
7,500
ft
SSE
160°
8
mph
0.00"
10:35 AM 61° 57° 88
%
10
mi
1026.1
mb
7,500
ft
S
170°
8
mph
0.00"
10:15 AM 61° 59° 94
%
10
mi
1026.1
mb
7,000
ft
SSE
150°
7
mph
0.00"
9:55 AM 61° 59° 94
%
10
mi
1026.1
mb
6,500
ft
SE
130°
6
mph
0.00"
9:35 AM -RA 59° 59° 100
%
3
mi
1026.1
mb
Variable 3
mph
0.00"
9:15 AM 59° 59° 100
%
8
mi
1026.4
mb
Calm 0.00"
8:55 AM 59° 59° 100
%
10
mi
1025.7
mb
7,000
ft
S
190°
5
mph
0.00"
8:35 AM 59° 57° 94
%
10
mi
1025.7
mb
8,000
ft
Variable 3
mph
0.00"
8:15 AM 59° 57° 94
%
9
mi
1025.7
mb
8,500
ft
Calm 0.00"
7:55 AM 59° 57° 94
%
10
mi
1025.7
mb
8,500
ft
Calm 0.00"
7:35 AM 59° 57° 94
%
10
mi
1025.7
mb
8,500
ft
SSE
150°
3
mph
0.00"
7:15 AM 61° 55° 82
%
10
mi
1025.4
mb
8,000
ft
Calm 0.00"
6:55 AM 59° 57° 94
%
10
mi
1025.4
mb
7,500
ft
S
180°
3
mph
0.00"
6:35 AM 59° 57° 94
%
10
mi
1025.1
mb
7,000
ft
Calm 0.00"
6:15 AM 59° 57° 94
%
10
mi
1025.1
mb
6,000
ft
Calm 0.00"
5:55 AM 59° 57° 94
%
10
mi
1025.1
mb
6,000
ft
Calm 0.00"
5:35 AM 59° 57° 94
%
10
mi
1024.7
mb
6,000
ft
Calm 0.00"
5:15 AM 59° 57° 94
%
10
mi
1024.4
mb
6,000
ft
Calm 0.00"